When you browse on this site, cookies collect data to enhance your experience and personalize the content and advertising you see.
Visit our Privacy Policy to learn more. By continuing to use the site, you agree to this use of cookies and data.
  • In Austria
  • List of Countries
  • For 7 days
  • Water Temperature
  • Weather Map
  • News
  • Weather Widgets
  • user-avatar
    Login

    Hourly Weather Cuautepec de Hinojosa

    Today, 21 October, Monday

    Time Temperature Precipitation Wind Pressure Humidity
    00:00 +13°C° 0 mm 3 mps 579 mmHg 86%
    01:00 +13°C° 0 mm 3 mps 579 mmHg 87%
    02:00 +13°C° 0 mm 3 mps 578 mmHg 88%
    03:00 +13°C° 0 mm 2 mps 578 mmHg 88%
    04:00 +13°C° 0 mm 2 mps 578 mmHg 88%
    05:00 +13°C° 0 mm 2 mps 578 mmHg 88%
    06:00 +15°C° 0 mm 2 mps 580 mmHg 82%
    07:00 +17°C° 0 mm 2 mps 581 mmHg 75%
    08:00 +19°C° 0 mm 2 mps 582 mmHg 69%
    09:00 +21°C° 0.1 mm 2 mps 583 mmHg 64%
    10:00 +23°C° 0.1 mm 2 mps 583 mmHg 59%
    11:00 +24°C° 0.1 mm 2 mps 584 mmHg 54%
    12:00 +23°C° 1.2 mm 2 mps 583 mmHg 59%
    13:00 +23°C° 1.2 mm 2 mps 582 mmHg 64%
    14:00 +21°C° 1.2 mm 2 mps 581 mmHg 69%
    15:00 +20°C° 0.8 mm 2 mps 580 mmHg 75%
    16:00 +18°C° 0.8 mm 2 mps 580 mmHg 80%
    17:00 +18°C° 0.8 mm 1 mps 580 mmHg 85%
    18:00 +16°C° 0.1 mm 1 mps 580 mmHg 87%
    19:00 +15°C° 0.1 mm 1 mps 580 mmHg 88%
    20:00 +15°C° 0.1 mm 1 mps 581 mmHg 89%
    21:00 +14°C° 0.1 mm 1 mps 581 mmHg 91%
    22:00 +14°C° 0.1 mm 1 mps 581 mmHg 92%
    23:00 +14°C° 0.1 mm 1 mps 581 mmHg 93%

    Tomorrow, 22 October, Tuesday

    Time Temperature Precipitation Wind Pressure Humidity
    00:00 +14°C° 0.1 mm 1 mps 580 mmHg 94%
    01:00 +13°C° 0.1 mm 1 mps 580 mmHg 94%
    02:00 +13°C° 0.1 mm 1 mps 580 mmHg 95%
    03:00 +13°C° 0.2 mm 1 mps 580 mmHg 95%
    04:00 +13°C° 0.2 mm 1 mps 580 mmHg 96%
    05:00 +13°C° 0.2 mm 1 mps 581 mmHg 96%
    06:00 +14°C° 0.1 mm 1 mps 581 mmHg 93%
    07:00 +15°C° 0.1 mm 1 mps 582 mmHg 90%
    08:00 +16°C° 0.1 mm 1 mps 583 mmHg 87%
    09:00 +17°C° 0.3 mm 2 mps 583 mmHg 86%
    10:00 +17°C° 0.3 mm 2 mps 583 mmHg 84%
    11:00 +18°C° 0.3 mm 3 mps 583 mmHg 82%
    12:00 +17°C° 0.3 mm 3 mps 583 mmHg 83%
    13:00 +17°C° 0.3 mm 3 mps 582 mmHg 85%
    14:00 +16°C° 0.3 mm 3 mps 581 mmHg 87%
    15:00 +16°C° 0.2 mm 3 mps 581 mmHg 89%
    16:00 +14°C° 0.2 mm 3 mps 581 mmHg 92%
    17:00 +14°C° 0.2 mm 2 mps 581 mmHg 94%
    18:00 +14°C° 0.3 mm 2 mps 581 mmHg 95%
    19:00 +13°C° 0.3 mm 2 mps 582 mmHg 95%
    20:00 +13°C° 0.3 mm 1 mps 582 mmHg 95%
    21:00 +13°C° 0.5 mm 1 mps 582 mmHg 96%
    22:00 +13°C° 0.5 mm 1 mps 582 mmHg 96%
    23:00 +13°C° 0.5 mm 1 mps 582 mmHg 96%

    Day after tomorrow, 23 October, Wednesday

    Time Temperature Precipitation Wind Pressure Humidity
    00:00 +13°C° 0.3 mm 1 mps 582 mmHg 96%
    01:00 +13°C° 0.3 mm 1 mps 581 mmHg 96%
    02:00 +12°C° 0.3 mm 1 mps 581 mmHg 97%
    03:00 +12°C° 0.1 mm 1 mps 581 mmHg 96%
    04:00 +12°C° 0.1 mm 1 mps 581 mmHg 96%
    05:00 +11°C° 0.1 mm 1 mps 580 mmHg 95%
    06:00 +13°C° 0 mm 1 mps 581 mmHg 91%
    07:00 +14°C° 0 mm 1 mps 582 mmHg 86%
    08:00 +15°C° 0 mm 1 mps 583 mmHg 81%
    09:00 +16°C° 0 mm 2 mps 583 mmHg 77%
    10:00 +17°C° 0 mm 2 mps 583 mmHg 73%
    11:00 +18°C° 0 mm 3 mps 583 mmHg 70%
    12:00 +18°C° 0.1 mm 3 mps 582 mmHg 70%
    13:00 +18°C° 0.1 mm 3 mps 582 mmHg 70%
    14:00 +18°C° 0.1 mm 3 mps 581 mmHg 70%
    15:00 +17°C° 0.1 mm 3 mps 580 mmHg 77%
    16:00 +15°C° 0.1 mm 2 mps 580 mmHg 85%
    17:00 +14°C° 0.1 mm 2 mps 579 mmHg 92%
    18:00 +13°C° 0 mm 2 mps 579 mmHg 93%
    19:00 +13°C° 0 mm 1 mps 580 mmHg 95%
    20:00 +12°C° 0 mm 1 mps 580 mmHg 97%
    21:00 +12°C° 0 mm 1 mps 580 mmHg 96%
    22:00 +12°C° 0 mm 1 mps 580 mmHg 94%
    23:00 +12°C° 0 mm 1 mps 580 mmHg 93%

    24 October, Thursday

    Time Temperature Precipitation Wind Pressure Humidity
    00:00 +12°C° 0 mm 1 mps 579 mmHg 93%
    01:00 +10°C° 0 mm 0 mps 579 mmHg 93%
    02:00 +10°C° 0 mm 0 mps 578 mmHg 93%
    03:00 +10°C° 0 mm 0 mps 578 mmHg 93%
    04:00 +11°C° 0 mm 1 mps 578 mmHg 93%
    05:00 +11°C° 0 mm 1 mps 578 mmHg 92%
    06:00 +13°C° 0 mm 1 mps 579 mmHg 86%
    07:00 +15°C° 0 mm 1 mps 581 mmHg 79%
    08:00 +18°C° 0 mm 1 mps 582 mmHg 72%
    09:00 +19°C° 0.1 mm 1 mps 582 mmHg 71%
    10:00 +18°C° 0.1 mm 2 mps 582 mmHg 69%
    11:00 +19°C° 0.1 mm 2 mps 582 mmHg 68%
    12:00 +19°C° 0.8 mm 3 mps 581 mmHg 73%
    13:00 +18°C° 0.8 mm 3 mps 580 mmHg 78%
    14:00 +18°C° 0.8 mm 3 mps 579 mmHg 84%
    15:00 +17°C° 0.4 mm 2 mps 579 mmHg 87%
    16:00 +16°C° 0.4 mm 2 mps 579 mmHg 91%
    17:00 +15°C° 0.4 mm 1 mps 579 mmHg 95%
    18:00 +15°C° 0 mm 1 mps 579 mmHg 95%
    19:00 +14°C° 0 mm 1 mps 579 mmHg 96%
    20:00 +14°C° 0 mm 1 mps 579 mmHg 97%
    21:00 +14°C° 0 mm 1 mps 579 mmHg 96%
    22:00 +13°C° 0 mm 1 mps 579 mmHg 96%
    23:00 +12°C° 0 mm 0 mps 579 mmHg 95%

    25 October, Friday

    Time Temperature Precipitation Wind Pressure Humidity
    00:00 +13°C° 0 mm 1 mps 579 mmHg 95%
    01:00 +13°C° 0 mm 1 mps 579 mmHg 95%
    02:00 +13°C° 0 mm 1 mps 579 mmHg 95%
    03:00 +13°C° 0 mm 1 mps 580 mmHg 95%
    04:00 +13°C° 0 mm 1 mps 580 mmHg 95%
    05:00 +13°C° 0 mm 1 mps 580 mmHg 95%
    06:00 +13°C° 0.5 mm 1 mps 580 mmHg 96%
    07:00 +13°C° 0.5 mm 1 mps 581 mmHg 96%
    08:00 +13°C° 0.5 mm 1 mps 581 mmHg 96%
    09:00 +13°C° 1.5 mm 1 mps 581 mmHg 96%
    10:00 +13°C° 1.5 mm 2 mps 581 mmHg 96%
    11:00 +14°C° 1.5 mm 2 mps 581 mmHg 96%
    12:00 +13°C° 1.3 mm 2 mps 581 mmHg 96%
    13:00 +12°C° 1.3 mm 3 mps 580 mmHg 96%
    14:00 +12°C° 1.3 mm 3 mps 580 mmHg 96%
    15:00 +12°C° 1.1 mm 3 mps 580 mmHg 96%
    16:00 +11°C° 1.1 mm 3 mps 580 mmHg 97%
    17:00 +11°C° 1.1 mm 3 mps 581 mmHg 97%
    18:00 +11°C° 1.1 mm 3 mps 581 mmHg 97%
    19:00 +11°C° 1.1 mm 3 mps 581 mmHg 97%
    20:00 +10°C° 1.1 mm 3 mps 582 mmHg 97%
    21:00 +10°C° 0.5 mm 3 mps 582 mmHg 97%
    22:00 +10°C° 0.5 mm 3 mps 582 mmHg 97%
    23:00 +10°C° 0.5 mm 3 mps 582 mmHg 97%

    26 October, Saturday

    Time Temperature Precipitation Wind Pressure Humidity
    00:00 +10°C° 0.2 mm 2 mps 581 mmHg 97%
    01:00 +9°C° 0.2 mm 2 mps 581 mmHg 97%
    02:00 +9°C° 0.2 mm 2 mps 581 mmHg 97%
    03:00 +9°C° 0.1 mm 2 mps 581 mmHg 97%
    04:00 +9°C° 0.1 mm 2 mps 581 mmHg 97%
    05:00 +10°C° 0.1 mm 1 mps 581 mmHg 97%
    06:00 +10°C° 0 mm 1 mps 581 mmHg 95%
    07:00 +11°C° 0 mm 1 mps 582 mmHg 94%
    08:00 +11°C° 0 mm 1 mps 582 mmHg 92%
    09:00 +12°C° 0 mm 1 mps 582 mmHg 89%
    10:00 +12°C° 0 mm 1 mps 582 mmHg 86%
    11:00 +13°C° 0 mm 1 mps 582 mmHg 84%
    12:00 +13°C° 0 mm 2 mps 581 mmHg 84%
    13:00 +14°C° 0 mm 2 mps 581 mmHg 84%
    14:00 +14°C° 0 mm 2 mps 580 mmHg 84%
    15:00 +13°C° 0 mm 2 mps 580 mmHg 87%
    16:00 +12°C° 0 mm 2 mps 580 mmHg 90%
    17:00 +11°C° 0 mm 1 mps 580 mmHg 93%
    18:00 +11°C° 0 mm 1 mps 580 mmHg 94%
    19:00 +11°C° 0 mm 1 mps 580 mmHg 94%
    20:00 +9°C° 0 mm 0 mps 581 mmHg 94%
    21:00 +10°C° 0 mm 0 mps 581 mmHg 93%
    22:00 +11°C° 0 mm 1 mps 581 mmHg 92%
    23:00 +11°C° 0 mm 1 mps 580 mmHg 91%

    27 October, Sunday

    Time Temperature Precipitation Wind Pressure Humidity
    00:00 +11°C° 0 mm 1 mps 580 mmHg 91%
    01:00 +11°C° 0 mm 1 mps 580 mmHg 91%
    02:00 +11°C° 0 mm 1 mps 579 mmHg 91%
    03:00 +11°C° 0 mm 1 mps 579 mmHg 91%
    04:00 +11°C° 0 mm 1 mps 579 mmHg 91%
    05:00 +11°C° 0 mm 1 mps 579 mmHg 90%
    06:00 +13°C° 0 mm 1 mps 581 mmHg 83%
    07:00 +15°C° 0 mm 1 mps 582 mmHg 75%
    08:00 +16°C° 0 mm 0 mps 583 mmHg 67%
    09:00 +19°C° 0 mm 1 mps 583 mmHg 65%
    10:00 +19°C° 0 mm 2 mps 584 mmHg 63%
    11:00 +20°C° 0 mm 3 mps 584 mmHg 60%
    12:00 +20°C° 0.6 mm 3 mps 583 mmHg 65%
    13:00 +19°C° 0.6 mm 3 mps 582 mmHg 69%
    14:00 +19°C° 0.6 mm 3 mps 582 mmHg 73%
    15:00 +17°C° 0.2 mm 2 mps 581 mmHg 79%
    16:00 +15°C° 0.2 mm 2 mps 581 mmHg 85%
    17:00 +14°C° 0.2 mm 1 mps 580 mmHg 91%
    18:00 +13°C° 0 mm 1 mps 580 mmHg 89%
    19:00 +13°C° 0 mm 1 mps 581 mmHg 86%
    20:00 +12°C° 0 mm 1 mps 581 mmHg 84%
    21:00 +12°C° 0 mm 1 mps 581 mmHg 81%
    22:00 +12°C° 0 mm 1 mps 581 mmHg 79%
    23:00 +11°C° 0 mm 0 mps 580 mmHg 76%
    Show more